Dalaman, Turkey

12:41 PM EEST on August 24, 2016 (GMT +0300)
Dalaman

Weather History for LTBS - December, 2012

Change the Weather History Date:

Saturday, December 1, 2012

  Actual Average Record
Temperature  
Mean Temperature 64 °F -  
Max Temperature 72 °F 60 °F 72 °F (2012)
Min Temperature 57 °F 44 °F 35 °F (2011)
Growing Degree Days 14 (Base 50)    
Moisture  
Dew Point 54 °F    
Average Humidity 67    
Maximum Humidity 88    
Minimum Humidity 43    
Precipitation  
Precipitation 0.00 in - - ()
Sea Level Pressure  
Sea Level Pressure 30.07 in    
Wind  
Wind Speed 8 mph ()    
Max Wind Speed 20 mph    
Max Gust Speed -    
Visibility 6.2 miles    
Events      
Averages and records for this station are not official NWS values.
T = Trace of Precipitation, MM = Missing Value Source: Averaged Metar Reports

Daily Weather History Graph

Daily Weather History Graph

Search for Another Location

Airport or City:

Trip Planner

Search our weather history database for the weather conditions in past years. The results will help you decide how hot, cold, wet, or windy it might be!

Date:

Astronomy

Dec. 01, 2012 Rise Set
Actual Time 6:58 AM EET 4:48 PM EET
Civil Twilight 6:30 AM EET 5:17 PM EET
Nautical Twilight 5:58 AM EET 5:49 PM EET
Astronomical Twilight 5:27 AM EET 6:20 PM EET
Moon 7:19 PM EET (12/1) 8:59 AM EET (12/1)
Length of Visible Light 10h 46m
Length of Day
9h 50m
Waning Gibbous, 93% of the Moon is Illuminated
Dec 1
Waning Gibbous
Dec 6
Last Quarter
Dec 13
New
Dec 20
First Quarter
Dec 28
Full

Hourly Weather History & Observations

Time (EET) Temp. Dew Point Humidity Pressure Visibility Wind Dir Wind Speed Gust Speed Precip Events Conditions
12:20 AM 69.8 °F 50.0 °F 49% 30.09 in 6.2 mi SSE 11.5 mph - N/A   Mostly Cloudy
12:50 AM 69.8 °F 50.0 °F 49% 30.09 in 6.2 mi SSE 13.8 mph - N/A   Mostly Cloudy
1:20 AM 69.8 °F 50.0 °F 49% 30.09 in 6.2 mi SSE 11.5 mph - N/A   Mostly Cloudy
1:50 AM 68.0 °F 51.8 °F 56% 30.06 in 6.2 mi SE 6.9 mph - N/A   Mostly Cloudy
2:00 AM 68 °F 51 °F 45% 30.09 in 6 mi SE 6.9 mph - -   Partly Cloudy
2:20 AM 64.4 °F 55.4 °F 73% 30.06 in 6.2 mi East 4.6 mph - N/A   Mostly Cloudy
2:50 AM 60.8 °F 53.6 °F 77% 30.06 in 6.2 mi NNE 4.6 mph - N/A   Mostly Cloudy
3:20 AM 59.0 °F 53.6 °F 82% 30.06 in 6.2 mi NE 4.6 mph - N/A   Mostly Cloudy
3:50 AM 59.0 °F 53.6 °F 82% 30.06 in 6.2 mi North 5.8 mph - N/A   Mostly Cloudy
4:20 AM 59.0 °F 53.6 °F 82% 30.06 in 6.2 mi NE 3.5 mph - N/A   Mostly Cloudy
4:50 AM 57.2 °F 53.6 °F 88% 30.06 in 6.2 mi NE 5.8 mph - N/A   Mostly Cloudy
5:20 AM 59.0 °F 53.6 °F 82% 30.06 in 6.2 mi Variable 2.3 mph - N/A   Mostly Cloudy
5:50 AM 57.2 °F 53.6 °F 88% 30.06 in 6.2 mi NE 5.8 mph - N/A   Mostly Cloudy
6:20 AM 59.0 °F 53.6 °F 82% 30.06 in 6.2 mi NE 3.5 mph - N/A   Mostly Cloudy
6:50 AM 59.0 °F 51.8 °F 77% 30.06 in 6.2 mi Variable 2.3 mph - N/A   Mostly Cloudy
7:20 AM 57.2 °F 51.8 °F 82% 30.09 in 6.2 mi ENE 5.8 mph - N/A   Mostly Cloudy
7:50 AM 60.8 °F 51.8 °F 72% 30.09 in 6.2 mi East 5.8 mph - N/A   Mostly Cloudy
8:00 AM 60 °F 52 °F 67% 30.12 in 6 mi East 5.8 mph - -   Partly Cloudy
8:20 AM 62.6 °F 53.6 °F 72% 30.09 in 6.2 mi East 4.6 mph - N/A   Mostly Cloudy
8:50 AM 64.4 °F 55.4 °F 73% 30.09 in 6.2 mi NNW 3.5 mph - N/A   Mostly Cloudy
9:20 AM 64.4 °F 55.4 °F 73% 30.09 in 6.2 mi NNE 4.6 mph - N/A   Mostly Cloudy
9:50 AM 66.2 °F 55.4 °F 68% 30.09 in 6.2 mi Variable 5.8 mph - N/A   Mostly Cloudy
10:20 AM 68.0 °F 55.4 °F 64% 30.09 in 6.2 mi ESE 8.1 mph - N/A   Mostly Cloudy
10:50 AM 68.0 °F 55.4 °F 64% 30.06 in 6.2 mi East 8.1 mph - N/A   Mostly Cloudy
11:20 AM 69.8 °F 55.4 °F 60% 30.06 in 6.2 mi East 9.2 mph - N/A   Mostly Cloudy
11:50 AM 69.8 °F 53.6 °F 56% 30.04 in 6.2 mi NE 4.6 mph - N/A   Mostly Cloudy
12:20 PM 69.8 °F 50.0 °F 49% 30.06 in 6.2 mi West 4.6 mph - N/A   Mostly Cloudy
12:50 PM 71.6 °F 50.0 °F 46% 30.04 in 6.2 mi South 4.6 mph - N/A   Mostly Cloudy
1:20 PM 71.6 °F 51.8 °F 50% 30.04 in 6.2 mi SW 10.4 mph - N/A   Mostly Cloudy
1:50 PM 71.6 °F 57.2 °F 60% 30.04 in 6.2 mi South 10.4 mph - N/A   Scattered Clouds
2:00 PM 72 °F 58 °F 53% 30.04 in 6 mi South 10.4 mph - -   Partly Cloudy
2:20 PM 69.8 °F 57.2 °F 64% 30.04 in 6.2 mi South 16.1 mph - N/A   Scattered Clouds
2:50 PM 69.8 °F 59.0 °F 68% 30.04 in 6.2 mi South 19.6 mph - N/A   Scattered Clouds
3:20 PM 69.8 °F 59.0 °F 68% 30.06 in 6.2 mi South 15.0 mph - N/A   Mostly Cloudy
3:50 PM 68.0 °F 59.0 °F 73% 30.06 in 6.2 mi South 18.4 mph - N/A   Mostly Cloudy
4:20 PM 69.8 °F 59.0 °F 68% 30.09 in 6.2 mi South 19.6 mph - N/A   Mostly Cloudy
4:50 PM 69.8 °F 59.0 °F 68% 30.09 in 6.2 mi South 17.3 mph - N/A   Mostly Cloudy
5:20 PM 68.0 °F 59.0 °F 73% 30.09 in 6.2 mi SSE 15.0 mph - N/A   Mostly Cloudy
5:50 PM 69.8 °F 53.6 °F 56% 30.09 in 6.2 mi SSE 11.5 mph - N/A   Mostly Cloudy
6:20 PM 69.8 °F 53.6 °F 56% 30.12 in 6.2 mi SSE 11.5 mph - N/A   Mostly Cloudy
6:50 PM 69.8 °F 55.4 °F 60% 30.12 in 6.2 mi SSE 10.4 mph - N/A   Mostly Cloudy
7:20 PM 69.8 °F 50.0 °F 49% 30.09 in 6.2 mi SE 11.5 mph - N/A   Mostly Cloudy
7:50 PM 69.8 °F 51.8 °F 53% 30.09 in 6.2 mi ESE 10.4 mph - N/A   Mostly Cloudy
8:00 PM 69 °F 51 °F 43% 30.11 in 6 mi ESE 10.4 mph - -   Partly Cloudy
8:20 PM 68.0 °F 57.2 °F 68% 30.06 in 6.2 mi ESE 11.5 mph - N/A   Mostly Cloudy
8:50 PM 68.0 °F 53.6 °F 60% 30.06 in 6.2 mi SE 11.5 mph - N/A   Mostly Cloudy
9:20 PM 66.2 °F 55.4 °F 68% 30.06 in 6.2 mi East 4.6 mph - N/A   Mostly Cloudy
9:50 PM 64.4 °F 55.4 °F 73% 30.06 in 6.2 mi East 6.9 mph - N/A   Mostly Cloudy
10:20 PM 64.4 °F 55.4 °F 73% 30.06 in 6.2 mi ESE 6.9 mph - N/A   Mostly Cloudy
10:50 PM 57.2 °F 53.6 °F 88% 30.06 in 6.2 mi NNE 4.6 mph - N/A   Mostly Cloudy
11:20 PM 57.2 °F 53.6 °F 88% 30.06 in 6.2 mi Variable 2.3 mph - N/A   Scattered Clouds
11:50 PM 59.0 °F 51.8 °F 77% 30.09 in 6.2 mi Variable 2.3 mph - N/A   Scattered Clouds